Regional Weather Roundup
Issued by NWS Newport/Morehead, NC

Current Version | Previous Version | Text Only | Print | Product List | Glossary On
Versions: 1 2 3 4 5 6 7 8 9 10 11 12 13 14 15 16 17 18 19 20 21 22 23 24 25 26 27 28 29 30 31 32 33 34 35 36 37 38 39 40 41 42 43 44 45 46 47 48 49 50
000
ASUS42 KMHX 020625
RWRMHX
WEATHER ROUNDUP FOR EASTERN NORTH CAROLINA
NATIONAL WEATHER SERVICE NEWPORT/MOREHEAD CITY NC
200 AM EDT THU JUL 02 2015

NOTE: "FAIR" INDICATES FEW OR NO CLOUDS BELOW 12,000 FEET
WITH NO SIGNIFICANT WEATHER AND/OR OBSTRUCTIONS TO VISIBILITY

NCZ015>017-031-032-045>047-102-103-020700-
NORTH COAST

CITY           SKY/WX    TMP DP  RH WIND       PRES   REMARKS
EDENTON        NOT AVBL
ELIZABETH CITY PTCLDY    76  72  87 SW7       29.93F
KITTY HAWK     NOT AVBL
MANTEO         NOT AVBL

$$

NCZ045>047-081-094-103-104-020700-
CENTRAL COAST

CITY           SKY/WX    TMP DP  RH WIND       PRES   REMARKS
FRISCO         PTCLDY    79  75  87 W9        29.96S
SWANQUARTER      N/A     79 N/A N/A SW7G14    29.91S

$$

NCZ095-097-098-100-101-020700-
SOUTHERN COAST

CITY           SKY/WX    TMP DP  RH WIND       PRES   REMARKS
BEAUFORT       CLEAR     79  75  87 SW7       29.96F
CEDAR ISLAND     N/A     77 N/A N/A SW3       30.00S
JACKSONVILLE   CLEAR     75  71  87 SW6       29.95F
PINEY ISLAND   CLEAR    N/A N/A N/A S5        29.96F
WILMINGTON     CLEAR     78  74  87 SW9       29.97F


$$

NCZ011>013-027>030-043-044-078>080-089-090>093-098-020700-
COASTAL PLAIN

CITY           SKY/WX    TMP DP  RH WIND       PRES   REMARKS
AHOSKIE        MOCLDY    71  69  95 S3        29.92F
CLINTON        NOT AVBL
ELIZABETHTOWN  NOT AVBL
GOLDSBORO      MOCLDY    76  72  88 S6        29.92F
GREENVILLE     NOT AVBL
HAVELOCK       CLEAR     75  72  90 SW5       29.96F
KENANSVILLE    NOT AVBL
KINSTON        PTCLDY    75  72  88 SW5       29.95
NEW BERN       CLEAR     74  71  91 SW5       29.96F
RICHLANDS      CLEAR     73  66  78 SW6       29.96S
ROCKY MOUNT    CLOUDY    77  72  84 SW6       29.93S
WASHINGTON     NOT AVBL
WHITEVILLE     NOT AVBL

$$

AMZ130-135-150-152-154-156-158-170-250-252-270-ANZ085-086-088-633-658-670-020700-
MARINE OBSERVATIONS

STATION/POSITION TIME  TEMP    WIND        PRES    WAVE   SWELL
                       AIR SEA DIR/SP/G            HT/PER HT/PER
                 (UTC) (F)     (DEG/KT/KT) (MB)    (FT/S) (FT/S)
CHESAPEAKE LIGHT 0500   79     230/ 14/ 15 1013.6
64 E VA BEACH    0550   78 77  210/ 10/ 12 1013.0    5/ 8   5/ 8
DUCK             0600   79 62  250/ 12/ 16 1012.5
2 E DUCK         0511      69                N/A     2/ 9
OREGON INLET     0600   79 76  240/ 14/ 17 1013.8
13E OREGON INLT  0600      74                N/A     4/ 8
HATTERAS CG      0600   76 80  230/  6/  8 1014.1
DIAMOND BUOY     0550   80 82  250/ 17/ 19 1014.2    5/ 6   2/ 8
CAPE LOOKOUT     0600   79     240/  9/ 12 1014.3
BEAUFORT LAB     0600   79 81  250/  4/ 10 1013.7
30 SE NEW RVR IN 0508   80 80  250/ 16/ 19 1015.3
27 SE WRIGHTSVLE 0600      80  240/ 16/ 19   N/A
5 SE WRIGHTSVLE  0508   80 80  220/ 12/ 17 1014.9
225 S CAPE HAT   0550   82 80  230/ 16/ 17 1018.9    6/ 8   2/12
41 SE CHARLESTON 0550   81 82  240/ 12/ 14 1015.7    4/ 8   3/ 8

$$


USA.gov is the U.S. government's official web portal to all federal, state and local government web resources and services.